| time (UTC) | temp F | wind direction | speed MPH | gust MPH | rain 1hr in | rain 24hr in | rain mn in | humidity % | barometer mb |
| 20260504014556 | 51 | 0.0 | 0.0 | 0.00 | 0.00 | 0.00 | 55 | 1015.4 | |
| 20260504014046 | 51 | 0.0 | 0.0 | 0.00 | 0.00 | 0.00 | 55 | 1015.3 | |
| 20260504013545 | 51 | 0.0 | 0.0 | 0.00 | 0.00 | 0.00 | 54 | 1015.3 | |
| 20260504013056 | 52 | 0.0 | 0.0 | 0.00 | 0.00 | 0.00 | 54 | 1015.2 | |
| 20260504012548 | 52 | 0.0 | 0.0 | 0.00 | 0.00 | 0.00 | 53 | 1015.1 | |
| 20260504012048 | 52 | 0.0 | 0.0 | 0.00 | 0.00 | 0.00 | 53 | 1015.0 | |
| 20260504011553 | 53 | 0.0 | 0.0 | 0.00 | 0.00 | 0.00 | 53 | 1015.0 | |
| 20260504011048 | 53 | 0.0 | 0.0 | 0.00 | 0.00 | 0.00 | 52 | 1014.8 | |
| 20260504010609 | 53 | 0.0 | 0.0 | 0.00 | 0.00 | 0.00 | 50 | 1014.9 | |
| 20260504010051 | 54 | 0.0 | 0.0 | 0.00 | 0.00 | 0.00 | 49 | 1014.8 | |
| 20260504005550 | 54 | 0.0 | 0.0 | 0.00 | 0.00 | 0.00 | 47 | 1014.8 | |
| 20260504005048 | 54 | 0.0 | 0.0 | 0.00 | 0.00 | 0.00 | 47 | 1014.7 | |
| 20260504004552 | 55 | 0.0 | 0.0 | 0.00 | 0.00 | 0.00 | 48 | 1014.7 | |
| 20260504004045 | 55 | 0.0 | 0.0 | 0.00 | 0.00 | 0.00 | 47 | 1014.7 | |
| 20260504003544 | 56 | 0.0 | 0.0 | 0.00 | 0.00 | 0.00 | 46 | 1014.7 | |
| 20260504003100 | 56 | 0.0 | 0.0 | 0.00 | 0.00 | 0.00 | 46 | 1014.6 | |
| 20260504002545 | 57 | 0.0 | 0.0 | 0.00 | 0.00 | 0.00 | 46 | 1014.7 | |
| 20260504002045 | 57 | 0.0 | 0.0 | 0.00 | 0.00 | 0.00 | 45 | 1014.5 | |
| 20260504001603 | 58 | 0.0 | 0.0 | 0.00 | 0.00 | 0.00 | 43 | 1014.7 | |
| 20260504001048 | 58 | 0.0 | 0.0 | 0.00 | 0.00 | 0.00 | 41 | 1014.7 | |
| 20260504000546 | 59 | 0.0 | 0.0 | 0.00 | 0.00 | 0.00 | 40 | 1014.6 | |
| 20260504000057 | 59 | 0.0 | 0.0 | 0.00 | 0.00 | 0.00 | 39 | 1014.7 | |
| 20260503235546 | 60 | 0.0 | 0.0 | 0.00 | 0.00 | 0.00 | 40 | 1014.6 | |
| 20260503235048 | 60 | 0.0 | 0.0 | 0.00 | 0.00 | 0.00 | 39 | 1014.5 | |
| 20260503234555 | 60 | 0.0 | 0.0 | 0.00 | 0.00 | 0.00 | 38 | 1014.4 | |
| 20260503234047 | 61 | 0.0 | 0.0 | 0.00 | 0.00 | 0.00 | 38 | 1014.4 | |
| 20260503233548 | 61 | 0.0 | 0.0 | 0.00 | 0.00 | 0.00 | 38 | 1014.4 | |
| 20260503233100 | 61 | 0.0 | 0.0 | 0.00 | 0.00 | 0.00 | 38 | 1014.4 | |
| 20260503232547 | 62 | 0.0 | 0.0 | 0.00 | 0.00 | 0.00 | 38 | 1014.4 | |
| 20260503232048 | 62 | 0.0 | 0.0 | 0.00 | 0.00 | 0.00 | 39 | 1014.3 | |
| 20260503231555 | 62 | 0.0 | 0.0 | 0.00 | 0.00 | 0.00 | 38 | 1014.3 | |
| 20260503231048 | 62 | 0.0 | 0.0 | 0.00 | 0.00 | 0.00 | 33 | 1014.2 | |
| 20260503230546 | 62 | 0.0 | 0.0 | 0.00 | 0.00 | 0.00 | 35 | 1014.2 | |
| 20260503230053 | 62 | 0.0 | 0.0 | 0.00 | 0.00 | 0.00 | 33 | 1014.1 | |
| 20260503225547 | 62 | 0.0 | 0.0 | 0.00 | 0.00 | 0.00 | 32 | 1014.2 | |
| 20260503225047 | 62 | 0.0 | 0.0 | 0.00 | 0.00 | 0.00 | 30 | 1014.1 | |
| 20260503224554 | 62 | 0.0 | 0.0 | 0.00 | 0.00 | 0.00 | 29 | 1014.2 | |
| 20260503224047 | 62 | 0.0 | 0.0 | 0.00 | 0.00 | 0.00 | 29 | 1014.2 | |
| 20260503223549 | 63 | 0.0 | 0.0 | 0.00 | 0.00 | 0.00 | 28 | 1014.3 | |
| 20260503223053 | 63 | 0.0 | 0.0 | 0.00 | 0.00 | 0.00 | 27 | 1014.3 | |
| 20260503222548 | 63 | 0.0 | 0.0 | 0.00 | 0.00 | 0.00 | 28 | 1014.2 | |
| 20260503222046 | 63 | 0.0 | 0.0 | 0.00 | 0.00 | 0.00 | 27 | 1014.2 | |
| 20260503221550 | 63 | 0.0 | 0.0 | 0.00 | 0.00 | 0.00 | 29 | 1014.2 | |
| 20260503221046 | 63 | 0.0 | 0.0 | 0.00 | 0.00 | 0.00 | 28 | 1014.3 | |
| 20260503220546 | 63 | 0.0 | 0.0 | 0.00 | 0.00 | 0.00 | 28 | 1014.2 | |
| 20260503220055 | 63 | 0.0 | 0.0 | 0.00 | 0.00 | 0.00 | 28 | 1014.3 | |
| 20260503215547 | 63 | 0.0 | 0.0 | 0.00 | 0.00 | 0.00 | 30 | 1014.3 | |
| 20260503215046 | 62 | 0.0 | 0.0 | 0.00 | 0.00 | 0.00 | 30 | 1014.4 | |
| 20260503214601 | 63 | 0.0 | 0.0 | 0.00 | 0.00 | 0.00 | 28 | 1014.3 | |
| 20260503214047 | 63 | 0.0 | 0.0 | 0.00 | 0.00 | 0.00 | 28 | 1014.3 | |
| 20260503213547 | 63 | 0.0 | 0.0 | 0.00 | 0.00 | 0.00 | 30 | 1014.4 | |
| 20260503213054 | 63 | 0.0 | 0.0 | 0.00 | 0.00 | 0.00 | 27 | 1014.4 | |
| 20260503212547 | 63 | 0.0 | 0.0 | 0.00 | 0.00 | 0.00 | 29 | 1014.4 | |
| 20260503212059 | 63 | 0.0 | 0.0 | 0.00 | 0.00 | 0.00 | 29 | 1014.4 | |
| 20260503211556 | 63 | 0.0 | 0.0 | 0.00 | 0.00 | 0.00 | 28 | 1014.4 | |
| 20260503211047 | 63 | 0.0 | 0.0 | 0.00 | 0.00 | 0.00 | 27 | 1014.4 | |
| 20260503210547 | 63 | 0.0 | 0.0 | 0.00 | 0.00 | 0.00 | 28 | 1014.5 | |
| 20260503210054 | 63 | 0.0 | 0.0 | 0.00 | 0.00 | 0.00 | 27 | 1014.5 | |
| 20260503205547 | 63 | 0.0 | 0.0 | 0.00 | 0.00 | 0.00 | 29 | 1014.5 | |
| 20260503205047 | 64 | 0.0 | 0.0 | 0.00 | 0.00 | 0.00 | 29 | 1014.5 | |
| 20260503204559 | 64 | 0.0 | 0.0 | 0.00 | 0.00 | 0.00 | 29 | 1014.6 | |
| 20260503204049 | 64 | 0.0 | 0.0 | 0.00 | 0.00 | 0.00 | 31 | 1014.7 | |
| 20260503203548 | 63 | 0.0 | 0.0 | 0.00 | 0.00 | 0.00 | 29 | 1014.7 | |
| 20260503203054 | 64 | 0.0 | 0.0 | 0.00 | 0.00 | 0.00 | 28 | 1014.7 | |
| 20260503202547 | 65 | 0.0 | 0.0 | 0.00 | 0.00 | 0.00 | 29 | 1014.7 | |
| 20260503202057 | 64 | 0.0 | 0.0 | 0.00 | 0.00 | 0.00 | 31 | 1014.8 | |
| 20260503201553 | 64 | 0.0 | 0.0 | 0.00 | 0.00 | 0.00 | 29 | 1014.8 | |
| 20260503201047 | 63 | 0.0 | 0.0 | 0.00 | 0.00 | 0.00 | 27 | 1014.9 | |
| 20260503200547 | 65 | 0.0 | 0.0 | 0.00 | 0.00 | 0.00 | 28 | 1015.1 | |
| 20260503200056 | 65 | 0.0 | 0.0 | 0.00 | 0.00 | 0.00 | 30 | 1015.1 | |
| 20260503195546 | 64 | 0.0 | 0.0 | 0.00 | 0.00 | 0.00 | 27 | 1015.1 | |
| 20260503195047 | 63 | 0.0 | 0.0 | 0.00 | 0.00 | 0.00 | 30 | 1015.3 | |
| 20260503194600 | 63 | 0.0 | 0.0 | 0.00 | 0.00 | 0.00 | 30 | 1015.5 | |
| 20260503194047 | 63 | 0.0 | 0.0 | 0.00 | 0.00 | 0.00 | 30 | 1015.6 | |
| 20260503193547 | 63 | 0.0 | 0.0 | 0.00 | 0.00 | 0.00 | 30 | 1015.6 | |
| 20260503193107 | 62 | 0.0 | 0.0 | 0.00 | 0.00 | 0.00 | 29 | 1015.6 | |
| 20260503192546 | 65 | 0.0 | 0.0 | 0.00 | 0.00 | 0.00 | 28 | 1015.6 | |
| 20260503192048 | 66 | 0.0 | 0.0 | 0.00 | 0.00 | 0.00 | 30 | 1015.7 | |
| 20260503191554 | 65 | 0.0 | 0.0 | 0.00 | 0.00 | 0.00 | 30 | 1015.7 | |
| 20260503191049 | 63 | 0.0 | 0.0 | 0.00 | 0.00 | 0.00 | 29 | 1015.7 | |
| 20260503190546 | 63 | 0.0 | 0.0 | 0.00 | 0.00 | 0.00 | 30 | 1015.8 | |
| 20260503190107 | 63 | 0.0 | 0.0 | 0.00 | 0.00 | 0.00 | 28 | 1015.8 | |
| 20260503185547 | 65 | 0.0 | 0.0 | 0.00 | 0.00 | 0.00 | 29 | 1015.9 | |
| 20260503185049 | 65 | 0.0 | 0.0 | 0.00 | 0.00 | 0.00 | 32 | 1016.0 | |
| 20260503184553 | 63 | 0.0 | 0.0 | 0.00 | 0.00 | 0.00 | 29 | 1016.1 | |
| 20260503184047 | 62 | 0.0 | 0.0 | 0.00 | 0.00 | 0.00 | 31 | 1016.2 | |
| 20260503183547 | 63 | 0.0 | 0.0 | 0.00 | 0.00 | 0.00 | 29 | 1016.3 | |
| 20260503183100 | 64 | 0.0 | 0.0 | 0.00 | 0.00 | 0.00 | 30 | 1016.2 | |
| 20260503182547 | 64 | 0.0 | 0.0 | 0.00 | 0.00 | 0.00 | 31 | 1016.1 | |
| 20260503182047 | 63 | 0.0 | 0.0 | 0.00 | 0.00 | 0.00 | 29 | 1016.2 | |
| 20260503181555 | 63 | 0.0 | 0.0 | 0.00 | 0.00 | 0.00 | 31 | 1016.4 | |
| 20260503181047 | 63 | 0.0 | 0.0 | 0.00 | 0.00 | 0.00 | 31 | 1016.5 | |
| 20260503180547 | 62 | 0.0 | 0.0 | 0.00 | 0.00 | 0.00 | 33 | 1016.5 | |
| 20260503180057 | 61 | 0.0 | 0.0 | 0.00 | 0.00 | 0.00 | 31 | 1016.5 | |
| 20260503175546 | 60 | 0.0 | 0.0 | 0.00 | 0.00 | 0.00 | 37 | 1016.6 | |
| 20260503175046 | 59 | 0.0 | 0.0 | 0.00 | 0.00 | 0.00 | 35 | 1016.7 | |
| 20260503174553 | 58 | 0.0 | 0.0 | 0.00 | 0.00 | 0.00 | 33 | 1016.6 | |
| 20260503174051 | 60 | 0.0 | 0.0 | 0.00 | 0.00 | 0.00 | 33 | 1016.7 | |
| 20260503173550 | 60 | 0.0 | 0.0 | 0.00 | 0.00 | 0.00 | 34 | 1016.7 | |
| 20260503173112 | 60 | 0.0 | 0.0 | 0.00 | 0.00 | 0.00 | 34 | 1016.7 | |
| 20260503172547 | 59 | 0.0 | 0.0 | 0.00 | 0.00 | 0.00 | 37 | 1016.7 | |
| 20260503172054 | 59 | 0.0 | 0.0 | 0.00 | 0.00 | 0.00 | 32 | 1016.7 | |
| 20260503171555 | 60 | 0.0 | 0.0 | 0.00 | 0.00 | 0.00 | 30 | 1016.7 | |
| 20260503171047 | 59 | 0.0 | 0.0 | 0.00 | 0.00 | 0.00 | 31 | 1016.7 | |
| 20260503170547 | 59 | 0.0 | 0.0 | 0.00 | 0.00 | 0.00 | 31 | 1016.7 | |
| 20260503150547 | 53 | 0.0 | 0.0 | 0.00 | 0.00 | 0.00 | 42 | 1017.6 | |
| 20260503150109 | 53 | 0.0 | 0.0 | 0.00 | 0.00 | 0.00 | 42 | 1017.4 | |
| 20260503140108 | 48 | 0.0 | 0.0 | 0.00 | 0.00 | 0.00 | 49 | 1017.5 | |
| 20260503131050 | 46 | 0.0 | 0.0 | 0.00 | 0.00 | 0.00 | 58 | 1017.8 | |
| 20260503130546 | 46 | 0.0 | 0.0 | 0.00 | 0.00 | 0.00 | 59 | 1017.9 | |
| 20260503110548 | 39 | 0.0 | 0.0 | 0.00 | 0.00 | 0.00 | 75 | 1016.8 | |
| 20260503110118 | 39 | 0.0 | 0.0 | 0.00 | 0.00 | 0.00 | 74 | 1016.5 | |
| 20260503100106 | 40 | 0.0 | 0.0 | 0.00 | 0.00 | 0.00 | 71 | 1015.6 | |
| 20260503081611 | 42 | 0.0 | 0.0 | 0.00 | 0.00 | 0.00 | 67 | 1014.8 | |
| 20260503081048 | 42 | 0.0 | 0.0 | 0.00 | 0.00 | 0.00 | 66 | 1014.7 | |
| 20260503080551 | 43 | 0.0 | 0.0 | 0.00 | 0.00 | 0.00 | 66 | 1014.8 | |
| 20260503072547 | 44 | 0.0 | 0.0 | 0.00 | 0.00 | 0.00 | 63 | 1014.7 | |
| 20260503072047 | 44 | 0.0 | 0.0 | 0.00 | 0.00 | 0.00 | 63 | 1014.6 | |
| 20260503071605 | 44 | 0.0 | 0.0 | 0.00 | 0.00 | 0.00 | 63 | 1014.6 | |
| 20260503071046 | 45 | 0.0 | 0.0 | 0.00 | 0.00 | 0.00 | 62 | 1014.5 | |
| 20260503070546 | 45 | 0.0 | 0.0 | 0.00 | 0.00 | 0.00 | 62 | 1014.4 | |
| 20260503055049 | 47 | 0.0 | 0.0 | 0.00 | 0.00 | 0.00 | 58 | 1014.3 | |
| 20260503054551 | 47 | 0.0 | 0.0 | 0.00 | 0.00 | 0.00 | 58 | 1014.3 | |
| 20260503054048 | 47 | 0.0 | 0.0 | 0.00 | 0.00 | 0.00 | 58 | 1014.3 | |
| 20260503053548 | 47 | 0.0 | 0.0 | 0.00 | 0.00 | 0.00 | 57 | 1014.4 | |
| 20260503053056 | 48 | 0.0 | 0.0 | 0.00 | 0.00 | 0.00 | 57 | 1014.4 | |
| 20260503052548 | 48 | 0.0 | 0.0 | 0.00 | 0.00 | 0.00 | 56 | 1014.3 | |
| 20260503052048 | 48 | 0.0 | 0.0 | 0.00 | 0.00 | 0.00 | 56 | 1014.3 | |
| 20260503051557 | 48 | 0.0 | 0.0 | 0.00 | 0.00 | 0.00 | 55 | 1014.4 | |
| 20260503051048 | 48 | 0.0 | 0.0 | 0.00 | 0.00 | 0.00 | 55 | 1014.4 | |
| 20260503050552 | 49 | 0.0 | 0.0 | 0.00 | 0.00 | 0.00 | 54 | 1014.2 | |
| 20260503050053 | 49 | 0.0 | 0.0 | 0.00 | 0.00 | 0.00 | 54 | 1014.3 | |
| 20260503045547 | 49 | 0.0 | 0.0 | 0.00 | 0.00 | 0.00 | 54 | 1014.3 | |
| 20260503045045 | 49 | 0.0 | 0.0 | 0.00 | 0.00 | 0.00 | 54 | 1014.3 | |
| 20260503044552 | 49 | 0.0 | 0.0 | 0.00 | 0.00 | 0.00 | 54 | 1014.4 | |
| 20260503044053 | 49 | 0.0 | 0.0 | 0.00 | 0.00 | 0.00 | 54 | 1014.4 | |
| 20260503043544 | 50 | 0.0 | 0.0 | 0.00 | 0.00 | 0.00 | 54 | 1014.3 | |
| 20260503043055 | 50 | 0.0 | 0.0 | 0.00 | 0.00 | 0.00 | 54 | 1014.3 | |
| 20260503042545 | 50 | 0.0 | 0.0 | 0.00 | 0.00 | 0.00 | 53 | 1014.4 | |
| 20260503042047 | 50 | 0.0 | 0.0 | 0.00 | 0.00 | 0.00 | 53 | 1014.4 | |
| 20260503041551 | 50 | 0.0 | 0.0 | 0.00 | 0.00 | 0.00 | 53 | 1014.3 | |
| 20260503041049 | 50 | 0.0 | 0.0 | 0.00 | 0.00 | 0.00 | 53 | 1014.4 | |
| 20260503040549 | 50 | 0.0 | 0.0 | 0.00 | 0.00 | 0.00 | 53 | 1014.2 | |
| 20260503040054 | 50 | 0.0 | 0.0 | 0.00 | 0.00 | 0.00 | 52 | 1014.2 | |
| 20260503035549 | 50 | 0.0 | 0.0 | 0.00 | 0.00 | 0.00 | 52 | 1014.2 | |
| 20260503035050 | 51 | 0.0 | 0.0 | 0.00 | 0.00 | 0.00 | 52 | 1014.2 | |
| 20260503034553 | 51 | 0.0 | 0.0 | 0.00 | 0.00 | 0.00 | 52 | 1014.1 | |
| 20260503034049 | 51 | 0.0 | 0.0 | 0.00 | 0.00 | 0.00 | 52 | 1014.2 | |
| 20260503033545 | 51 | 0.0 | 0.0 | 0.00 | 0.00 | 0.00 | 52 | 1014.1 | |
| 20260503033058 | 51 | 0.0 | 0.0 | 0.00 | 0.00 | 0.00 | 52 | 1014.1 | |
| 20260503032544 | 51 | 0.0 | 0.0 | 0.00 | 0.00 | 0.00 | 52 | 1013.9 | |
| 20260503032044 | 52 | 0.0 | 0.0 | 0.00 | 0.00 | 0.00 | 52 | 1013.9 | |
| 20260503031553 | 52 | 0.0 | 0.0 | 0.00 | 0.00 | 0.00 | 53 | 1013.9 | |
| 20260503031046 | 52 | 0.0 | 0.0 | 0.00 | 0.00 | 0.00 | 54 | 1013.8 | |
| 20260503030545 | 52 | 0.0 | 0.0 | 0.00 | 0.00 | 0.00 | 54 | 1013.8 | |
| 20260503030051 | 52 | 0.0 | 0.0 | 0.00 | 0.00 | 0.00 | 53 | 1013.9 | |
| 20260503025545 | 52 | 0.0 | 0.0 | 0.00 | 0.00 | 0.00 | 52 | 1013.9 | |
| 20260503025045 | 52 | 0.0 | 0.0 | 0.00 | 0.00 | 0.00 | 53 | 1014.0 | |
| 20260503024557 | 52 | 0.0 | 0.0 | 0.00 | 0.00 | 0.00 | 53 | 1013.8 | |
| 20260503024047 | 52 | 0.0 | 0.0 | 0.00 | 0.00 | 0.00 | 53 | 1013.8 | |
| 20260503023552 | 53 | 0.0 | 0.0 | 0.00 | 0.00 | 0.00 | 54 | 1013.8 | |
| 20260503023050 | 53 | 0.0 | 0.0 | 0.00 | 0.00 | 0.00 | 53 | 1013.9 | |
| 20260503022548 | 53 | 0.0 | 0.0 | 0.00 | 0.00 | 0.00 | 53 | 1013.8 | |
| 20260503022047 | 53 | 0.0 | 0.0 | 0.00 | 0.00 | 0.00 | 53 | 1013.9 | |
| 20260503021600 | 53 | 0.0 | 0.0 | 0.00 | 0.00 | 0.00 | 53 | 1013.8 | |
| 20260503021047 | 53 | 0.0 | 0.0 | 0.00 | 0.00 | 0.00 | 54 | 1013.8 | |
| 20260503020548 | 53 | 0.0 | 0.0 | 0.00 | 0.00 | 0.00 | 53 | 1013.9 | |
| 20260503020057 | 53 | 0.0 | 0.0 | 0.00 | 0.00 | 0.00 | 53 | 1013.9 | |
| 20260503015547 | 53 | 0.0 | 0.0 | 0.00 | 0.00 | 0.00 | 53 | 1013.8 | |
| 20260503015046 | 53 | 0.0 | 0.0 | 0.00 | 0.00 | 0.00 | 53 | 1013.8 |